Location: NJAA Observatory
(40.6819°N, 74.8979°W)
Time: 18:32:46
(UTC-04:00)

Cosmos 1328 Rocket - Visible Passes

Search period start: 01 April 2015 00:00
Search period end: 11 April 2015 00:00
Orbit: 603 x 628 km, 82.5° (Epoch: 01 April)

Date Brightness Start Highest point End Pass type
(mag) Time Alt. Az. Time Alt. Az. Time Alt. Az.
01 Apr 4.9 20:30:12 10° SSW 20:34:19 43° WNW 20:38:29 10° N visible
02 Apr 6.1 20:47:10 10° SW 20:50:43 24° WNW 20:54:15 10° NNW visible
03 Apr 6.9 21:04:55 10° W 21:07:15 14° WNW 21:09:24 10° NW visible
04 Apr 7.2 05:34:53 10° NE 05:36:54 13° ENE 05:39:09 10° E visible
05 Apr 6.5 05:49:56 10° NNE 05:53:26 23° ENE 05:57:01 10° SE visible
05 Apr 4.9 19:57:20 10° SSW 20:01:29 46° WNW 20:05:42 10° N visible
06 Apr 5.3 06:05:40 10° N 06:09:51 40° ENE 06:14:04 10° SSE visible
06 Apr 6.2 20:14:14 10° SW 20:17:52 25° WNW 20:21:29 10° NNW visible
07 Apr 7.0 20:31:52 10° WSW 20:34:23 15° WNW 20:36:45 10° NW visible
08 Apr 7.1 05:02:14 10° NE 05:04:03 13° ENE 05:06:05 10° E visible
09 Apr 6.4 05:17:11 10° NNE 05:20:36 22° ENE 05:24:06 10° SE visible
10 Apr 5.3 05:32:51 10° N 05:37:01 38° ENE 05:41:11 10° SSE visible
